Weather History for KPHP - October, 2012

Change the Weather History Date:

Wednesday, October 31, 2012

  Actual Average Record
Temperature  
Mean Temperature 54 °F 42 °F  
Max Temperature 75 °F 56 °F 84 °F (1999)
Min Temperature 33 °F 28 °F -1 °F (1991)
Degree Days  
Heating Degree Days 11 23  
Month to date heating degree days 538 517  
Since 1 July heating degree days 627 703  
Cooling Degree Days 0 0  
Month to date cooling degree days 1 4  
Year to date cooling degree days 1202 818  
Growing Degree Days 3 (Base 50)    
Moisture  
Dew Point 37 °F    
Average Humidity 60    
Maximum Humidity 96    
Minimum Humidity 23    
Precipitation  
Precipitation 0.00 in 0.03 in 0.28 in (2000)
Month to date precipitation 0.59 1.43  
Year to date precipitation 6.80 16.30  
Sea Level Pressure  
Sea Level Pressure 30.00 in    
Wind  
Wind Speed 8 mph (WNW)    
Max Wind Speed 18 mph    
Max Gust Speed 24 mph    
Visibility 10 miles    
Events      
T = Trace of Precipitation, MM = Missing Value Source: NWS Daily Summary

Daily Weather History Graph

Daily Weather History Graph

Search for Another Location

Airport or City:

Trip Planner

Search our weather history database for the weather conditions in past years. The results will help you decide how hot, cold, wet, or windy it might be!

Date:

Astronomy

Oct. 31, 2012 Rise Set
Actual Time 7:22 AM MDT 5:37 PM MDT
Civil Twilight 6:52 AM MDT 6:07 PM MDT
Nautical Twilight 6:18 AM MDT 6:41 PM MDT
Astronomical Twilight 5:44 AM MDT 7:14 PM MDT
Moon 6:45 PM MDT (10/31) 9:09 AM MDT (10/31)
Length of Visible Light 11h 14m
Length of Day
10h 14m
Full, 97% of the Moon is Illuminated
Oct 31
Full
Nov 6
Last Quarter
Nov 13
New
Nov 20
First Quarter
Nov 28
Full

Hourly Weather History & Observations

Time (MDT) Temp. Windchill Dew Point Humidity Pressure Visibility Wind Dir Wind Speed Gust Speed Precip Events Conditions
12:55 AM 41.0 °F 34.7 °F 35.1 °F 79% 30.00 in 10.0 mi WNW 10.4 mph - N/A   Clear
1:55 AM 39.0 °F 33.4 °F 34.0 °F 82% 29.99 in 10.0 mi WNW 8.1 mph - N/A   Clear
2:55 AM 39.0 °F 32.8 °F 35.1 °F 86% 29.99 in 10.0 mi West 9.2 mph - N/A   Clear
3:55 AM 37.9 °F 32.1 °F 34.0 °F 86% 29.98 in 10.0 mi West 8.1 mph - N/A   Clear
4:55 AM 35.1 °F 29.3 °F 33.1 °F 92% 29.98 in 10.0 mi West 6.9 mph - N/A   Clear
5:55 AM 37.0 °F 34.5 °F 34.0 °F 89% 30.00 in 10.0 mi West 3.5 mph - N/A   Clear
6:55 AM 33.1 °F - 32.0 °F 96% 30.01 in 10.0 mi Calm Calm - N/A   Clear
7:55 AM 35.1 °F - 33.1 °F 92% 30.02 in 10.0 mi Calm Calm - N/A   Clear
8:55 AM 43.0 °F 40.3 °F 39.0 °F 86% 30.01 in 10.0 mi WSW 4.6 mph - N/A   Scattered Clouds
9:55 AM 50.0 °F - 41.0 °F 71% 30.01 in 10.0 mi WSW 6.9 mph - N/A   Mostly Cloudy
10:55 AM 57.9 °F - 43.0 °F 58% 29.99 in 10.0 mi WSW 8.1 mph - N/A   Clear
11:55 AM 66.9 °F - 42.1 °F 40% 29.98 in 10.0 mi West 11.5 mph - N/A   Clear
12:55 PM 72.0 °F - 39.0 °F 30% 29.94 in 10.0 mi WSW 8.1 mph - N/A   Clear
1:55 PM 73.9 °F - 37.0 °F 26% 29.93 in 10.0 mi WSW 13.8 mph - N/A   Clear
2:55 PM 73.9 °F - 33.1 °F 22% 29.92 in 10.0 mi NW 15.0 mph 20.7 mph N/A   Clear
3:55 PM 73.0 °F - 35.1 °F 25% 29.93 in 10.0 mi NW 18.4 mph - N/A   Clear
4:55 PM 70.0 °F - 35.1 °F 28% 29.95 in 10.0 mi NNW 11.5 mph - N/A   Clear
5:55 PM 62.1 °F - 36.0 °F 38% 29.99 in 10.0 mi North 17.3 mph - N/A   Clear
6:55 PM 57.0 °F - 37.9 °F 49% 30.03 in 10.0 mi North 16.1 mph - N/A   Clear
7:55 PM 51.1 °F - 37.9 °F 61% 30.05 in 10.0 mi North 11.5 mph - N/A   Clear
8:55 PM 48.0 °F - 37.9 °F 68% 30.07 in 10.0 mi SE 4.6 mph - N/A   Clear
9:55 PM 45.0 °F - 37.9 °F 76% 30.07 in 10.0 mi Calm Calm - N/A   Clear
10:55 PM 42.1 °F 39.2 °F 37.9 °F 85% 30.08 in 10.0 mi NNW 4.6 mph - N/A   Clear
11:47 PM 39.2 °F 35.9 °F 37.4 °F 93% 30.09 in 6.0 mi NW 4.6 mph - N/A   Mostly Cloudy
11:55 PM 39.0 °F 34.8 °F 37.0 °F 93% 30.09 in 6.0 mi North 5.8 mph - N/A   Mostly Cloudy